Regional Weather Roundup
Issued by NWS Upton, NY

Current Version | Previous Version | Text Only | Print | Product List | Glossary On
Versions: 1 2 3 4 5 6 7 8 9 10 11 12 13 14 15 16 17 18 19 20 21 22 23 24 25 26 27 28 29 30 31 32 33 34 35 36 37 38 39 40 41 42 43 44 45 46 47 48 49 50
000 ASUS41 KOKX 191105 RWROKX REGIONAL WEATHER ROUNDUP NATIONAL WEATHER SERVICE NEW YORK NY 600 AM EST FRI DEC 19 2014 NOTE: "FAIR" INDICATES FEW OR NO CLOUDS BELOW 12,000 FEET WITH NO SIGNIFICANT WEATHER AND/OR OBSTRUCTIONS TO VISIBILITY. NYZ071-072-176-178-NJZ106-104-191200- NEW YORK CITY METRO AREA CITY SKY/WX TMP DP RH WIND PRES REMARKS CENTRAL PARK CLOUDY 37 21 52 NW8 30.00R WCI 31 LAGUARDIA APRT CLOUDY 37 24 59 NW15G23 29.98R WCI 28 KENNEDY INTL CLOUDY 38 22 52 NW10G21 30.00R WCI 31 NEWARK/LIBERTY CLOUDY 37 24 59 NW12G20 30.00R WCI 29 BRNX BOT. GARD N/A N/A N/A N/A W9 29.98S TETERBORO CLOUDY 37 22 54 NW8 29.98R WCI 31 $$ NYZ177-179-078>081-191200- LONG ISLAND NEW YORK CITY SKY/WX TMP DP RH WIND PRES REMARKS FARMINGDALE MOCLDY 35 25 66 NW6 29.98R WCI 30 ISLIP CLOUDY 36 25 64 NW9 29.95R WCI 29 SHIRLEY CLOUDY 37 26 64 NW6 29.97R WCI 32 WESTHAMPTON CLOUDY 37 27 67 NW9 29.97R WCI 30 MONTAUK POINT N/A 38 25 59 NW14G22 29.95R WCI 30 $$ NYZ052-065-067-191200- HUDSON VALLEY CITY SKY/WX TMP DP RH WIND PRES REMARKS WHITE PLAINS MOCLDY 35 23 61 NW13 29.95R WCI 26 NEWBURGH CLOUDY 34 25 69 W12 29.96R WCI 25 MONTGOMERY CLOUDY 34 22 61 NW9 29.97R WCI 27 POUGHKEEPSIE CLOUDY 35 25 66 CALM 29.97R ALBANY CLOUDY 31 21 66 NW13 29.98R WCI 21 $$ NJZ001-105-106-008-010-013-015-019>022-104-191200- NEW JERSEY CITY SKY/WX TMP DP RH WIND PRES REMARKS NEWARK/LIBERTY CLOUDY 37 24 59 NW12G20 30.00R WCI 29 TETERBORO CLOUDY 37 22 54 NW8 29.98R WCI 31 CALDWELL CLOUDY 36 23 59 NW8 29.99S WCI 30 MORRISTOWN N/A 39 25 56 NW3 29.99S SOMERVILLE CLOUDY 38 23 55 NW7 29.99R WCI 33 SUSSEX CLOUDY 34 22 61 N9 29.99R WCI 27 ANDOVER N/A 34 23 64 VRB5 29.98R WCI 30 TRENTON CLOUDY 36 24 62 NW7 30.01R WCI 30 MILLVILLE CLOUDY 35 26 69 W10 30.05S WCI 27 ATLANTIC CITY CLOUDY 35 25 66 W10 30.04R WCI 27 WRIGHTSTOWN CLOUDY 36 25 65 W6 29.99S WCI 31 TOMS RIVER CLOUDY 36 27 69 W8 30.01S WCI 29 BELMAR CLOUDY 36 23 60 W7 30.00R WCI 30 $$ PAZ047>061-062-071-191200- EASTERN PENNSYLVANIA CITY SKY/WX TMP DP RH WIND PRES REMARKS PHILADELPHIA CLOUDY 37 24 59 W10 30.05S WCI 30 ALLENTOWN CLOUDY 35 26 69 W9 30.01R WCI 28 SCRANTON CLOUDY 32 24 72 NW10 30.00R WCI 24 $$ CTZ002-004>006-009-010-012-RIZ004-006-007-MAZ004-011-015-191200- SOUTHERN NEW ENGLAND IN CT CITY SKY/WX TMP DP RH WIND PRES REMARKS BRADLEY INTL CLOUDY 34 20 56 W15 29.93S WCI 24 HARTFORD CLOUDY 35 21 56 MISG 29.96R DANBURY CLOUDY 34 23 64 NW5 29.96R WCI 30 WTRBRY/OXFORD CLOUDY 32 19 59 NW6 29.94R WCI 26 BRIDGEPORT CLOUDY 37 27 67 NW3 29.97R MERIDEN CLOUDY 35 22 58 NW8 29.96R WCI 29 NEW HAVEN CLOUDY 39 24 55 NW9 29.96R WCI 33 CHESTER CLOUDY 34 23 64 NW7G20 29.94R WCI 28 GROTON CLOUDY 34 25 69 NW14 29.94R WCI 25 WILLIMANTIC CLOUDY 34 21 59 W10 29.93R WCI 26 IN RI CITY SKY/WX TMP DP RH WIND PRES REMARKS PROVIDENCE PTCLDY 34 25 69 W9 29.90S WCI 27 BLOCK ISLAND CLOUDY 36 25 64 NW14G21 29.92R WCI 27 WESTERLY CLOUDY 34 25 69 VRB6 29.93R WCI 29 IN MA CITY SKY/WX TMP DP RH WIND PRES REMARKS BOSTON CLOUDY 34 24 67 W9G20 29.89R WCI 27 WORCESTER CLOUDY 30 23 75 W15 29.85S WCI 19 WESTFIELD CLOUDY 33 21 61 NW16 29.92S WCI 23 PROVINCETOWN CLOUDY 36 25 64 NW17 29.87S WCI 25 NANTUCKET CLOUDY 38 25 59 NW13 29.88R WCI 30 $$ ANZ330-335-338-340-345-350-353-355-191200- COASTAL MARINE OBSERVATIONS STATION/POSITION TIME SKY/WX TEMP WIND PRES VSBY WAVE AIR SEA DIR/SP/G HT/PER (UTC) (F) (DEG/KT/KT) (MB) (MI) (FT/S) NY HARB ENTRANCE 1100 39 47 310/ 17/ 19 1015.3 2/ 4 4S FIRE IS 1100 47 N/A 2/ 4 20S FIRE ISLAND 1000 40 49 1014.9 3/ 5 23SW MTP 1100 N/A 3/ 3 HUDSON CANYON 1100 42 56 310/ 17/ 21 1013.9 5/ 6 EXECUTION ROCKS 1100 38 42 300/ 10/ 16 N/A WESTERN LI SOUND 1100 38 290/ 12/ 16 N/A 1 CENTRAL LI SOUND 1100 37 44 340/ 14/ 17 N/A 1/ 4 EASTERN LI SOUND NOT AVBL ROBBINS REEF 1100 37 330/ 8/ 14 1014.3 $$ >>>>>>>>>>>>>>>>>>>>>>>>>>>> KEY <<<<<<<<<<<<<<<<<<<<<<<<<<< > < > SKY/WX - SKY CONDITION/PRESENT WEATHER < > TMP - TEMPERATURE IN FAHRENHEIT < > DP - DEWPOINT IN FAHRENHEIT < > RH - RELATIVE HUMIDITY IN PERCENT < > WIND - DIRECTION AND SPEED IN MPH < > PRES - MEAN SEA LEVEL PRESSURE IN INCHES OF HG < > WCI - WIND CHILL INDEX < > VSB - VISIBILITY IN MILES < > HX - HEAT INDEX < > TC - TEMPERATURE IN CELSIUS < > VRB - VARIABLE WIND DIRECTION < > < >>>>>>>>>>>>>>>>>>>>>>>>>>>> KEY <<<<<<<<<<<<<<<<<<<<<<<<<<<

USA.gov is the U.S. government's official web portal to all federal, state and local government web resources and services.